Track STARLINK-2513 now! 10-day predictions STARLINK-2513 is classified as:
1 48317U 21036AT 22185.81103498 -.00003013 00000-0 -18353-3 0 9999 2 48317 53.0549 4.5282 0001505 79.1840 280.9318 15.06384985 66262